Lid_Strength_Index
16 17 17 18 17 17 18 18 18 18 19 19 20 20 20 20 19 20 20 20 20 20 20 20 20 20 21 21 21 20 21 21 22 19 18 17 17 17 17 18 17 18 18
16 17 19 18 18 19 19 19 19 20 19 20 20 20 20 20 20 21 21 21 21 22 21 21 21 19 20 20 20 20 19 19 20 21 19 19 19 18 19 20 19 19 20
18 19 19 19 19 19 19 19 19 20 20 20 20 21 21 21 21 21 21 22 21 21 21 21 20 20 20 19 19 20 20 19 21 21 21 19 20 19 21 21 21 21 20
18 19 19 19 19 19 19 19 19 19 19 19 20 20 20 21 21 21 21 22 21 20 20 20 20 19 19 19 19 19 19 20 20 21 21 21 21 21 22 24 24 22 23
19 20 20 19 19 19 20 19 19 19 19 18 18 18 18 18 19 20 20 20 20 20 20 19 20 19 17 17 19 19 20 21 22 22 23 24 24 25 25 24 24 24 24
20 20 19 19 20 19 19 19 18 18 18 18 18 17 17 16 15 16 18 20 20 21 21 21 20 20 19 18 18 19 20 22 23 24 25 26 25 25 24 24 25 26 27
20 20 19 19 19 19 19 19 19 19 18 18 17 17 17 16 15 16 17 19 20 21 21 22 21 21 19 20 20 21 21 20 20 23 25 25 25 24 23 24 25 25 26
21 20 20 20 20 19 19 20 20 19 19 19 18 17 17 16 16 16 17 19 20 21 22 23 22 21 20 19 22 24 23 22 22 22 23 24 23 22 22 23 23 25 25
21 21 21 20 20 20 20 20 20 20 20 20 19 19 18 17 16 17 19 20 21 22 22 23 23 21 18 18 23 24 24 22 21 20 20 20 19 19 20 23 27 28 29
21 21 20 20 20 21 21 20 20 20 20 19 19 20 20 19 16 17 19 20 22 23 23 23 21 20 19 18 22 24 24 22 25 25 26 24 23 24 21 24 25 29 29
20 20 20 20 21 20 20 20 21 21 21 21 21 21 21 20 19 17 18 21 23 24 24 25 24 19 19 19 19 23 21 21 26 28 28 27 26 26 25 24 23 24 26
22 22 22 22 20 21 22 21 21 22 22 23 23 22 21 21 18 19 19 19 20 24 25 24 23 20 20 20 21 19 19 24 28 29 29 29 27 26 24 23 22 21 20
24 25 24 23 21 21 22 22 22 23 23 24 24 25 24 22 21 20 20 20 20 23 23 23 21 21 21 23 22 21 25 28 29 30 29 28 26 24 23 22 21 21 20
26 25 24 24 23 23 21 22 23 24 25 24 25 27 27 24 23 22 22 25 22 23 25 28 24 23 23 24 27 26 27 27 28 29 28 26 24 23 22 22 23 23 23
25 25 25 24 25 25 24 24 23 22 22 26 27 28 30 26 21 19 20 21 22 21 31 35 33 30 29 29 28 27 27 27 27 26 26 25 24 23 23 22 23 24 26
25 25 26 26 27 27 27 28 21 20 20 19 19 21 24 20 19 18 18 19 20 20 37 38 31 31 30 30 29 29 27 27 26 25 25 25 25 25 25 25 25 26 27
27 27 28 28 29 30 31 31 32 28 22 21 20 20 20 19 19 19 19 19 21 26 38 35 33 32 31 30 29 29 28 26 25 25 25 25 25 26 26 27 26 26 26
31 29 30 31 32 33 33 33 34 35 35 32 26 22 21 21 20 19 19 24 30 31 40 37 34 32 31 30 29 29 27 26 25 25 25 26 26 27 27 27 26 26 26
29 31 33 35 35 33 33 34 35 35 35 35 33 27 29 23 22 21 22 36 37 34 33 34 32 31 31 30 29 28 27 27 26 26 26 26 26 26 26 26 25 25 25
33 31 33 35 35 34 34 34 34 35 36 36 35 35 34 34 35 36 39 40 39 36 33 34 32 31 30 30 29 28 28 27 27 26 26 26 26 25 25 25 24 25 24
32 34 33 36 35 36 36 35 35 37 37 37 35 35 23 30 35 36 35 36 35 35 33 31 30 30 29 29 28 28 28 27 27 26 26 26 25 25 24 24 23 23 23
32 33 36 34 36 35 35 36 37 37 38 37 34 36 24 36 34 34 34 33 33 34 33 32 31 30 29 29 28 28 28 28 27 27 26 26 25 25 24 23 22 21 20
31 33 34 36 34 34 35 37 37 37 35 35 35 34 37 35 35 34 33 32 33 32 31 32 32 30 28 28 28 28 29 28 27 26 27 26 25 24 22 21 20 20 20
30 30 31 32 32 31 31 31 34 34 33 34 35 35 34 34 33 33 33 33 32 31 31 31 30 30 29 28 28 28 27 27 26 25 26 25 23 20 19 19 18 19 19
29 29 30 29 29 28 29 29 31 32 32 33 32 35 36 35 33 33 33 33 32 32 31 30 29 29 29 29 29 29 28 27 26 23 21 19 18 19 18 18 18 18 18
29 28 27 27 27 27 28 28 28 28 30 31 32 33 34 34 33 34 33 33 32 31 31 30 29 29 29 29 28 26 24 22 20 18 17 17 18 18 17 17 18 18 18